sat.trackr.live / text

‹ back to catalog

STARLINK-2628

NORAD 48359 · 2021-038G

PAYLOAD ACTIVE UNKNOWN

§ Identity

Operator
Country
US
Launch date
2021-05-04
Launch site
AFETR
Launch vehicle
Mass (kg)
RCS (m²)

Purposes: comms

External: N2YO · Heavens-Above · Gunter

§ Orbital elements

Epoch: 2026-09-13T01:57:20.849184Z

Period
93.95 min
Inclination
53.1570°
Eccentricity
0.0001792
Mean motion
15.32787906 rev/d
Perigee alt
466.3 km
Apogee alt
468.7 km
Semi-major
6,845.6 km
B*
9.9848e-4
RAAN
206.3279°
Arg perigee
104.6617°
Mean anomaly
255.4584°
Rev number
29,578

§ Raw data

STARLINK-26281 48359U 21038G   26256.08149131  .00031826  00000+0  99848-3 0  99912 48359  53.1570 206.3279 0001792 104.6617 255.4584 15.32787906295787

JSON: /api/v1/satellites/48359 · /tle

For live sub-satellite position, see the globe view (requires WebGL).

§ Visibility from observer

Set your observer location to see the next 7 days of passes ≥ 10°. The values pass through the URL so the page stays shareable.

No JS? Fill the form by hand. The geolocation button needs JavaScript.